Weather History for KOGB - November, 2012

Change the Weather History Date:

Saturday, November 24, 2012

  Actual Average Record
Temperature  
Mean Temperature 49 °F 54 °F  
Max Temperature 61 °F 66 °F 80 °F (1979)
Min Temperature 36 °F 42 °F 18 °F (1970)
Degree Days  
Heating Degree Days 16 11  
Month to date heating degree days 270 203  
Since 1 July heating degree days 347 293  
Cooling Degree Days 0 0  
Month to date cooling degree days 5 12  
Year to date cooling degree days 2320 2099  
Moisture  
Dew Point 33 °F    
Average Humidity 55    
Maximum Humidity 82    
Minimum Humidity 29    
Precipitation  
Precipitation 0.00 in 0.10 in 1.45 in (1961)
Month to date precipitation 1.47 2.30  
Year to date precipitation 38.20 42.79  
Sea Level Pressure  
Sea Level Pressure 30.03 in    
Wind  
Wind Speed 4 mph (NW)    
Max Wind Speed 13 mph    
Max Gust Speed 21 mph    
Visibility 10 miles    
Events      
T = Trace of Precipitation, MM = Missing Value Source: NWS Daily Summary

Daily Weather History Graph

Daily Weather History Graph

Search for Another Location

Airport or City:

Trip Planner

Search our weather history database for the weather conditions in past years. The results will help you decide how hot, cold, wet, or windy it might be!

Date:

Astronomy

Nov. 24, 2012 Rise Set
Actual Time 7:03 AM EST 5:16 PM EST
Civil Twilight 6:36 AM EST 5:43 PM EST
Nautical Twilight 6:06 AM EST 6:14 PM EST
Astronomical Twilight 5:36 AM EST 6:43 PM EST
Moon 2:53 PM EST (11/24) 3:27 AM EST (11/24)
Length of Visible Light 11h 06m
Length of Day
10h 13m
Waxing Gibbous, 87% of the Moon is Illuminated
Nov 24
Waxing Gibbous
Nov 28
Full
Dec 6
Last Quarter
Dec 13
New
Dec 20
First Quarter

Hourly Weather History & Observations

Time (EST) Temp. Windchill Dew Point Humidity Pressure Visibility Wind Dir Wind Speed Gust Speed Precip Events Conditions
12:53 AM 55.9 °F - 43.0 °F 62% 29.95 in 10.0 mi WNW 5.8 mph - N/A   Clear
1:53 AM 55.0 °F - 43.0 °F 64% 29.96 in 10.0 mi NW 6.9 mph - N/A   Clear
2:53 AM 51.1 °F - 43.0 °F 74% 29.97 in 10.0 mi NW 4.6 mph - N/A   Clear
3:53 AM 48.9 °F - 39.9 °F 71% 29.99 in 10.0 mi NW 4.6 mph - N/A   Clear
4:53 AM 48.0 °F - 37.0 °F 66% 30.00 in 10.0 mi NW 3.5 mph - N/A   Clear
5:53 AM 45.0 °F - 36.0 °F 71% 30.01 in 10.0 mi Calm Calm - N/A   Clear
6:53 AM 43.0 °F 41.3 °F 34.0 °F 71% 30.04 in 10.0 mi NW 3.5 mph - N/A   Clear
7:53 AM 44.1 °F 41.5 °F 35.1 °F 71% 30.05 in 10.0 mi NW 4.6 mph - N/A   Clear
8:53 AM 46.9 °F - 35.1 °F 63% 30.06 in 10.0 mi NW 4.6 mph - N/A   Clear
9:53 AM 51.1 °F - 32.0 °F 48% 30.07 in 10.0 mi North 5.8 mph - N/A   Clear
10:53 AM 54.0 °F - 30.9 °F 41% 30.07 in 10.0 mi NW 4.6 mph - N/A   Clear
11:53 AM 55.9 °F - 28.9 °F 36% 30.05 in 10.0 mi Variable 3.5 mph - N/A   Clear
12:53 PM 57.9 °F - 28.0 °F 32% 30.01 in 10.0 mi WNW 4.6 mph - N/A   Clear
1:53 PM 60.1 °F - 28.9 °F 31% 29.99 in 10.0 mi NNW 10.4 mph - N/A   Clear
2:53 PM 60.1 °F - 28.9 °F 31% 29.98 in 10.0 mi WNW 11.5 mph 20.7 mph N/A   Clear
3:53 PM 60.1 °F - 28.9 °F 31% 29.99 in 10.0 mi WNW 9.2 mph - N/A   Clear
4:53 PM 57.9 °F - 28.9 °F 33% 30.01 in 10.0 mi WNW 6.9 mph - N/A   Clear
5:53 PM 50.0 °F - 30.9 °F 48% 30.04 in 10.0 mi Calm Calm - N/A   Clear
6:53 PM 48.0 °F - 35.1 °F 61% 30.06 in 10.0 mi Calm Calm - N/A   Clear
7:53 PM 46.0 °F 44.8 °F 32.0 °F 58% 30.08 in 10.0 mi North 3.5 mph - N/A   Clear
8:53 PM 45.0 °F - 26.1 °F 48% 30.09 in 10.0 mi Calm Calm - N/A   Clear
9:53 PM 37.9 °F 34.4 °F 32.0 °F 79% 30.11 in 10.0 mi NW 4.6 mph - N/A   Clear
10:53 PM 39.0 °F - 28.9 °F 67% 30.11 in 10.0 mi Calm Calm - N/A   Clear
11:53 PM 36.0 °F - 28.0 °F 73% 30.11 in 10.0 mi Calm Calm - N/A   Clear